Date String (YYYY-MM-DD hh:mm:ss) UTC,Instrument flags,Ambient pressure (hPa),Sample flow (lpm),Bypass flow (lpm),Sample temperature (°C),Ambient temperature (°C),ASC tube jacket temperature (°C),LED temperature (°C),Box temperature (°C),Sample RH (%),Span deviation,Mass concentration (μg/m³),Mass concentration (μg/m³),Mass concentration (μg/m³)
DateTimeUTC,F1_M11,P_M11,Q1_M11,Q2_M11,T1_M11,T2_M11,T3_M11,T4_M11,T5_M11,U1_M11,ZSPAN_M11,X0_M11,X2_M11,X1_M11
2023-05-25 17:00:00,,0829.1,4.99,0.00,29.5,25.8,00.0,37.9,30.9,27.2,0003.0,0019.71,0011.19,0010.53
2023-05-25 17:01:00,,0829.1,5.00,0.00,29.5,26.1,00.0,37.9,30.9,26.2,0003.0,0019.55,0011.04,0010.39
2023-05-25 17:02:00,,0829.1,4.99,0.00,29.5,26.5,00.0,37.8,30.9,26.0,0003.0,0019.38,0010.91,0010.25
2023-05-25 17:03:00,,0829.1,5.00,0.00,29.4,26.8,00.0,37.8,31.0,27.9,0003.0,0019.26,0010.80,0010.14
2023-05-25 17:04:00,,0829.1,5.01,0.00,29.4,27.0,00.0,37.8,31.0,28.0,0003.0,0019.45,0010.88,0010.19
2023-05-25 17:05:00,,0829.1,5.01,0.00,29.4,27.2,00.0,37.8,31.0,28.1,0003.0,0019.41,0010.87,0010.18
2023-05-25 17:06:00,,0829.1,4.99,0.00,29.4,27.4,00.0,37.8,31.0,28.3,0003.1,0019.17,0010.81,0010.15
2023-05-25 17:07:00,,0829.1,4.99,0.00,29.5,27.6,00.0,37.8,31.1,29.1,0003.0,0018.03,0010.80,0010.16
2023-05-25 17:08:00,,0829.1,5.00,0.00,29.5,27.7,00.0,37.8,31.1,28.4,0003.1,0017.62,0010.85,0010.20
2023-05-25 17:09:00,,0829.1,5.01,0.00,29.5,27.8,00.0,37.8,31.1,28.7,0003.0,0018.01,0011.02,0010.33
2023-05-25 17:10:00,,0829.1,5.01,0.00,29.5,27.9,00.0,37.8,31.1,28.6,0003.1,0018.76,0011.24,0010.48
2023-05-25 17:11:00,,0829.1,4.99,0.00,29.5,28.0,00.0,37.8,31.1,28.6,0003.1,0019.19,0011.41,0010.60
2023-05-25 17:12:00,,0829.1,4.98,0.00,29.5,28.0,00.0,37.8,31.2,28.4,0003.0,0019.88,0011.62,0010.78
2023-05-25 17:13:00,,0829.1,5.01,0.00,29.5,28.0,00.0,37.9,31.2,28.2,0003.0,0020.17,0011.84,0011.00
2023-05-25 17:14:00,,0829.1,5.00,0.00,29.6,28.1,00.0,37.9,31.2,27.7,0003.0,0020.47,0012.05,0011.21
2023-05-25 17:15:00,,0829.1,4.99,0.00,29.6,28.1,00.0,37.9,31.2,28.7,0002.9,0020.39,0012.04,0011.21
2023-05-25 17:16:00,,0829.1,4.99,0.00,29.6,28.1,00.0,37.9,31.2,28.9,0002.8,0020.39,0012.07,0011.26
2023-05-25 17:17:00,,0829.1,5.00,0.00,29.6,28.2,00.0,37.9,31.3,29.0,0002.6,0020.70,0012.24,0011.41
2023-05-25 17:18:00,,0829.1,5.00,0.00,29.6,28.2,00.0,37.9,31.3,29.0,0002.7,0020.94,0012.36,0011.51
2023-05-25 17:19:00,,0829.1,5.00,0.00,29.7,28.2,00.0,37.9,31.3,28.7,0002.7,0021.20,0012.48,0011.59
2023-05-25 17:20:00,,0829.1,5.00,0.00,29.7,28.3,00.0,37.9,31.3,28.7,0002.7,0021.06,0012.60,0011.68
2023-05-25 17:21:00,,0829.1,5.00,0.00,29.7,28.3,00.0,38.0,31.3,28.3,0002.7,0020.76,0012.79,0011.80
2023-05-25 17:22:00,,0829.1,4.99,0.00,29.7,28.0,00.0,37.9,31.3,28.0,0002.8,0020.92,0012.88,0011.89
2023-05-25 17:23:00,,0829.1,5.00,0.00,29.7,26.5,00.0,37.9,31.1,28.2,0002.8,0020.34,0012.91,0011.92
2023-05-25 17:24:00,,0829.0,5.01,0.00,29.6,25.3,00.0,37.8,30.9,28.3,0002.8,0020.66,0012.93,0011.94
2023-05-25 17:25:00,,0829.0,5.01,0.00,29.5,25.2,00.0,37.7,30.8,28.8,0002.9,0020.83,0012.99,0011.99
2023-05-25 17:26:00,,0829.0,5.00,0.00,29.4,25.4,00.0,37.7,30.7,28.5,0003.0,0022.19,0013.10,0012.08
2023-05-25 17:27:00,,0829.0,5.00,0.00,29.4,25.8,00.0,37.7,30.7,29.1,0003.1,0022.72,0013.26,0012.20
2023-05-25 17:28:00,,0829.0,5.00,0.00,29.3,26.2,00.0,37.7,30.8,29.3,0003.2,0023.36,0013.31,0012.24
2023-05-25 17:29:00,,0829.0,5.00,0.00,29.3,26.5,00.0,37.7,30.8,29.9,0003.2,0023.53,0013.34,0012.27
2023-05-25 17:30:00,,0829.1,5.00,0.00,29.3,26.8,00.0,37.7,30.9,29.7,0003.1,0023.51,0013.38,0012.30
2023-05-25 17:31:00,,0829.1,4.99,0.00,29.3,27.0,00.0,37.7,30.9,29.7,0003.1,0023.64,0013.35,0012.29
2023-05-25 17:32:00,,0829.1,4.99,0.00,29.3,27.2,00.0,37.7,30.9,29.7,0003.1,0023.97,0013.29,0012.26
2023-05-25 17:33:00,,0829.1,5.00,0.00,29.3,27.4,00.0,37.7,30.9,29.6,0003.2,0023.85,0013.26,0012.24
2023-05-25 17:34:00,,0829.1,5.01,0.00,29.3,27.5,00.0,37.7,31.0,29.6,0003.2,0023.71,0013.24,0012.21
2023-05-25 17:35:00,,0829.1,5.01,0.00,29.3,27.6,00.0,37.7,31.0,29.5,0003.2,0023.60,0013.25,0012.23
2023-05-25 17:36:00,,0829.1,4.99,0.00,29.4,27.7,00.0,37.7,31.0,29.3,0003.1,0024.00,0013.27,0012.24
2023-05-25 17:37:00,,0829.1,5.00,0.00,29.4,27.8,00.0,37.7,31.0,30.6,0003.0,0022.95,0013.22,0012.20
2023-05-25 17:38:00,,0829.1,5.01,0.00,29.4,27.9,00.0,37.7,31.1,29.7,0002.9,0022.40,0013.15,0012.16
2023-05-25 17:39:00,,0829.2,5.01,0.00,29.4,28.0,00.0,37.7,31.1,29.1,0002.9,0021.96,0013.15,0012.16
2023-05-25 17:40:00,,0829.2,5.01,0.00,29.4,28.0,00.0,37.7,31.1,29.0,0002.9,0022.14,0013.16,0012.14
2023-05-25 17:41:00,,0829.1,5.00,0.00,29.5,28.1,00.0,37.7,31.1,29.2,0002.9,0023.40,0013.06,0012.06
2023-05-25 17:42:00,,0829.2,5.00,0.00,29.5,28.1,00.0,37.8,31.2,29.4,0002.9,0023.75,0012.99,0012.01
2023-05-25 17:43:00,,0829.2,5.00,0.00,29.5,28.1,00.0,37.8,31.2,28.6,0002.9,0024.30,0012.95,0011.98
2023-05-25 17:44:00,,0829.2,5.00,0.00,29.5,28.2,00.0,37.8,31.2,27.9,0002.8,0025.08,0012.93,0011.97
2023-05-25 17:45:00,,0829.2,5.00,0.00,29.5,28.2,00.0,37.8,31.2,28.5,0002.8,0024.95,0012.85,0011.91
2023-05-25 17:46:00,,0829.2,4.99,0.00,29.6,28.2,00.0,37.8,31.2,28.9,0002.8,0024.81,0012.80,0011.85
2023-05-25 17:47:00,,0829.2,5.00,0.00,29.6,27.3,00.0,37.8,31.2,29.3,0002.9,0024.28,0012.68,0011.75
2023-05-25 17:48:00,,0829.2,5.00,0.00,29.5,26.1,00.0,37.7,31.0,29.0,0002.9,0024.20,0012.64,0011.65
2023-05-25 17:49:00,,0829.2,5.01,0.00,29.5,26.0,00.0,37.7,30.9,29.0,0002.9,0024.40,0012.64,0011.60
2023-05-25 17:50:00,,0829.2,5.01,0.00,29.4,26.2,00.0,37.7,30.9,29.2,0002.9,0024.26,0012.53,0011.48
2023-05-25 17:51:00,,0829.2,5.00,0.00,29.4,26.4,00.0,37.7,30.9,28.4,0002.9,0023.78,0012.44,0011.41
2023-05-25 17:52:00,,0829.2,5.00,0.00,29.4,26.7,00.0,37.7,30.9,28.2,0003.0,0023.87,0012.40,0011.37
2023-05-25 17:53:00,,0829.2,5.00,0.00,29.4,27.0,00.0,37.7,30.9,28.8,0002.9,0023.33,0012.33,0011.30
2023-05-25 17:54:00,,0829.2,5.01,0.00,29.4,27.2,00.0,37.7,30.9,28.6,0002.9,0022.19,0012.27,0011.23
2023-05-25 17:55:00,,0829.2,5.00,0.00,29.4,27.4,00.0,37.7,31.0,28.5,0002.9,0021.44,0012.25,0011.17
2023-05-25 17:56:00,,0829.2,5.00,0.00,29.4,27.5,00.0,37.7,31.0,28.2,0002.9,0021.63,0012.25,0011.17
2023-05-25 17:57:00,,0829.2,5.00,0.00,29.4,27.6,00.0,37.7,31.0,28.7,0002.9,0021.79,0012.27,0011.18
2023-05-25 17:58:00,,0829.2,5.00,0.00,29.4,27.7,00.0,37.7,31.1,28.1,0002.7,0022.02,0012.35,0011.22
2023-05-25 17:59:00,,0829.2,5.00,0.00,29.4,27.8,00.0,37.7,31.1,27.9,0002.8,0022.27,0012.49,0011.33
